Weather in Yaroslavskaya

Russia / Krasnodar Krai     44°36′43″N   40°27′42″E
temp.,
°C
wind,
m/s
gust,
m/s
humid.,
%
clouds,
%
prec.,
mm/h
press.,
hPa
HPBL,
m
6 march, sat
sat600:00+2s34610 0.0 101940
03:00+2ssw345714 0.0 101948
06:00+2s445725 0.0 101754
09:00+7ssw3106019 0.0 1017349
12:00+12wsw3126098 0.0 10151712
15:00+12wsw3126099 0.0 10131206
18:00+7sw4762100 0.0 1013148
21:00+5sw41262100 0.0 1016308
7 march, sun
sun700:000wnw61198100 5.5 1019673
03:00−2nw5997100 11.5 1022656
06:00−6wnw239682 0.4 102483
09:00−4w117842 0.4 1025350
12:00−2n22670 0.0 1024755
15:00−1n22680 0.0 1023793
18:00−4wnw11770 0.0 102322
21:00−5ssw23820 0.0 102438
8 march, mon
mon800:00−5ssw23810 0.0 102342
03:00−5ssw238232 0.0 102349
06:00−5s238142 0.0 102143
09:00−1s227024 0.0 1020271
12:00+2wsw02663 0.0 1019892
15:00+3wnw136534 0.0 10171078
18:000w2475100 0.0 1017112
21:00−2ssw228095 0.0 101950
9 march, tue
tue900:00−2s23866 0.0 101863
03:00−3s237437 0.0 101862
06:00−2ssw2271100 0.0 101830
09:00+1sw1364100 0.0 1018266
12:00+5wnw365786 0.0 10181286
15:00+3wnw8127588 0.1 1018899
18:000nw6109881 1.8 1020655
21:00−2wnw369591 5.3 1023506
10 march, wed
wed1000:00−3sw1294100 0.3 102496
03:00−4s119499 0.4 102326
06:00−3sse119298 0.0 102346
09:00−1se128198 0.1 1023392
12:00+1ene2169100 0.0 1021717
15:00+2ene226799 0.0 1019677
18:000ene2278100 0.0 101850
21:00−1ene1286100 0.0 101943